This is the latest recevied weather packets stored in our database for station/object IK8TGH-3. If no packets are shown the sender has not sent any weather packets the latest 10 day(s).
| Time | Temp. | Humidity | Pressure | Rain* | Wind** | Luminosity | Snow |
|---|---|---|---|---|---|---|---|
| 1777511549 | 18.33° C | 64% | 1016.1 hPa | - | - | - | - |
| 1777510349 | 18.33° C | 64% | 1016.4 hPa | - | - | - | - |
| 1777509148 | 18.33° C | 63% | 1016.3 hPa | - | - | - | - |
| 1777507948 | 18.33° C | 63% | 1016.4 hPa | - | - | - | - |
| 1777506748 | 18.33° C | 63% | 1016.5 hPa | - | - | - | - |
| 1777505548 | 18.33° C | 61% | 1016.8 hPa | - | - | - | - |
| 1777504347 | 18.89° C | 59% | 1016.8 hPa | - | - | - | - |
| 1777503147 | 18.89° C | 58% | 1016.8 hPa | - | - | - | - |
| 1777501947 | 18.89° C | 57% | 1017 hPa | - | - | - | - |
| 1777500746 | 19.44° C | 56% | 1016.9 hPa | - | - | - | - |
| 1777499546 | 19.44° C | 55% | 1017.1 hPa | - | - | - | - |
| 1777498345 | 19.44° C | 54% | 1017.1 hPa | - | - | - | - |
| 1777497145 | 20° C | 53% | 1017.2 hPa | - | - | - | - |
| 1777495945 | 19.44° C | 54% | 1017.2 hPa | - | - | - | - |
| 1777494745 | 19.44° C | 54% | 1017.2 hPa | - | - | - | - |
| 1777493544 | 19.44° C | 51% | 1017.1 hPa | - | - | - | - |
| 1777492344 | 19.44° C | 51% | 1017.2 hPa | - | - | - | - |
| 1777491144 | 19.44° C | 51% | 1017.1 hPa | - | - | - | - |
| 1777489943 | 19.44° C | 50% | 1017 hPa | - | - | - | - |
| 1777488743 | 19.44° C | 49% | 1017 hPa | - | - | - | - |
| 1777487543 | 18.89° C | 51% | 1016.7 hPa | - | - | - | - |
| 1777486342 | 19.44° C | 49% | 1016.6 hPa | - | - | - | - |
| 1777485142 | 20° C | 49% | 1016.8 hPa | - | - | - | - |
| 1777483942 | 19.44° C | 48% | 1016.6 hPa | - | - | - | - |
| 1777482741 | 19.44° C | 49% | 1016.7 hPa | - | - | - | - |
* Rain since midnight (hover to see other rain measurements)
** Current wind speed in m/s (hover to see current wind gust speed)